Starlink 6221

operational
NORAD ID: 56484 Int'l Des: 2023-064 Owner: SPXS Country: US Constellation: starlink
LEOCIRCULAR

Über Starlink 6221

Beschreibung wird geladen...

Live-Position

3D-Globus wird geladen...

Nächste Überflüge

Höhenverlauf

Altitude vs Time

uPlot chart will show altitude changes over time

Zweizeiliger Elementsatz

1 56484U 23064AN 25353.19320251 -.00000386 00000-0 -24565-4 0 9998
2 56484 70.0006 327.3373 0002852 265.9292 94.1541 14.98331208143676
Epoch: 19. Dez. 2025 • Age: 16 hours

Aktueller Status

Höhe 584.0 km
Geschwindigkeit 7.57 km/s
Subsatellitenpunkt -35.83°S, 85.49°W
Startdatum 10. Mai 2023
Alter 2.6 years
Typ internet

Technische Details

Klassifizierung Payload
Masse 305.00 kg
Trockenmasse 290.00 kg
Gesamtmasse 305.00 kg
Länge 0.20 m
Durchmesser 2.80 m
Spannweite 9.00 m
Form Box + pan
Hersteller SPXS
Bus-Typ Starlink
Phasenstatus In Orbit
Besitzer/Staat SPXS/US

Große Konstellationen

Loading constellations...